Location: Beeston
(52.7000°N, 0.8167°E)
Time: 10:42:05
(UTC+00:00)

NOSS 0 Rocket - Pass Details

Date: 15 May 2026
Orbit: 936 x 952 km, 70.0° (Epoch: 8 June)

Event Time Altitude Azimuth Distance (km) Brightness Sun altitude
Rises 23:19:09 0° 325° (NW) 3,618 8.1 -17.9°
Reaches altitude 10° 23:21:43 10° 322° (NW) 2,667 7.2 -17.9°
Maximum altitude 23:27:47 61° 244° (WSW) 1,062 4.1 -18.0°
Enters shadow 23:30:48 30° 176° (S) 1,614 4.6 -18.1°
